Location: Arthez
(43.0833°N, 0.2500°W)
Time: 00:33:49
(UTC+00:00)

NOSS 3-1 (A) - Pass Details

Date: 31 May 2022
Orbit: 711 x 1501 km, 63.4° (Epoch: 21 May)

Event Time Altitude Azimuth Distance (km) Brightness Sun altitude
Rises 01:26:19 0° 308° (NW) 4,153 7.0 -22.0°
Reaches altitude 10° 01:30:09 10° 290° (WNW) 3,322 6.2 -21.7°
Maximum altitude 01:34:56 17° 254° (WSW) 2,952 5.6 -21.4°
Enters shadow 01:35:12 17° 251° (WSW) 2,960 5.6 -21.3°
